Location: Roc des P�zouls
(43.9667°N, 3.5500°E)
Time: 05:10:24
(UTC+00:00)

Cosmos 2360 Rocket - Pass Details

Date: 14 November 2019
Orbit: 832 x 847 km, 71.0° (Epoch: 11 December)

Event Time Altitude Azimuth Distance (km) Brightness Sun altitude
Rises 05:35:08 0° 339° (NNW) 3,417 5.0 -11.6°
Reaches altitude 10° 05:37:43 10° 345° (NNW) 2,479 4.4 -11.2°
Maximum altitude 05:43:10 45° 58° (ENE) 1,142 3.3 -10.2°
Drops below altitude 10° 05:48:34 10° 131° (SE) 2,464 5.8 -9.3°
Sets 05:51:07 0° 137° (SE) 3,394 6.5 -8.9°
